Weather History for Joplin, MO

Change the Weather History Date:

Thursday, December 6, 2012

  Actual Average Record
Temperature  
Mean Temperature 52 °F 40 °F  
Max Temperature 63 °F 49 °F 71 °F (1998)
Min Temperature 41 °F 30 °F -1 °F (1950)
Degree Days  
Heating Degree Days 13 26  
Month to date heating degree days 53 148  
Since 1 July heating degree days 839 905  
Cooling Degree Days 0 0  
Month to date cooling degree days 0 0  
Year to date cooling degree days 2106 1698  
Growing Degree Days 2 (Base 50)    
Moisture  
Dew Point 41 °F    
Average Humidity 67    
Maximum Humidity 80    
Minimum Humidity 53    
Precipitation  
Precipitation 0.00 in 0.10 in 1.33 in (1974)
Month to date precipitation 0.69 0.63  
Year to date precipitation 37.65 44.36  
Sea Level Pressure  
Sea Level Pressure 29.92 in    
Wind  
Wind Speed 7 mph (SSE)    
Max Wind Speed 14 mph    
Max Gust Speed 20 mph    
Visibility 10 miles    
Events      
T = Trace of Precipitation, MM = Missing Value Source: NWS Daily Summary

Daily Weather History Graph

Daily Weather History Graph

Search for Another Location

Airport:

Trip Planner

Search our weather history database for the weather conditions in past years. The results will help you decide how hot, cold, wet, or windy it might be!

Date:

Astronomy

Dec. 06, 2012 Rise Set
Actual Time 7:17 AM CST 5:00 PM CST
Civil Twilight 6:49 AM CST 5:29 PM CST
Nautical Twilight 6:16 AM CST 6:01 PM CST
Astronomical Twilight 5:45 AM CST 6:33 PM CST
Moon No Moon Rise 12:18 PM CST (12/6)
Length of Visible Light 10h 40m
Length of Day
9h 42m
Waning Gibbous, 49% of the Moon is Illuminated
Dec 6
Waning Gibbous
Dec 13
New
Dec 19
First Quarter
Dec 28
Full
Jan 4
Last Quarter

Hourly Weather History & Observations

Time (CST) Temp. Windchill Dew Point Humidity Pressure Visibility Wind Dir Wind Speed Gust Speed Precip Events Conditions
12:53 AM 48.0 °F - 33.1 °F 56% 30.03 in 10.0 mi SSE 9.2 mph - N/A   Clear
1:53 AM 48.0 °F - 32.0 °F 54% 30.02 in 10.0 mi SE 8.1 mph - N/A   Clear
2:53 AM 43.0 °F 38.2 °F 33.1 °F 68% 30.01 in 10.0 mi ESE 8.1 mph - N/A   Clear
3:53 AM 44.1 °F 40.8 °F 33.1 °F 65% 30.00 in 10.0 mi SE 5.8 mph - N/A   Clear
4:53 AM 43.0 °F 38.8 °F 32.0 °F 65% 29.99 in 10.0 mi SE 6.9 mph - N/A   Clear
5:53 AM 42.8 °F 38.6 °F 32.0 °F 66% 29.97 in 10.0 mi SE 6.9 mph - N/A   Clear
6:53 AM 42.1 °F 37.1 °F 33.1 °F 70% 29.98 in 10.0 mi SE 8.1 mph - N/A   Clear
7:53 AM 43.0 °F 37.7 °F 35.1 °F 74% 29.97 in 10.0 mi SSE 9.2 mph - N/A   Clear
8:53 AM 48.0 °F - 39.0 °F 71% 29.97 in 10.0 mi SE 10.4 mph - N/A   Clear
9:53 AM 50.0 °F - 42.1 °F 74% 29.96 in 10.0 mi SSE 10.4 mph - N/A   Clear
10:53 AM 55.0 °F - 45.0 °F 69% 29.95 in 10.0 mi South 10.4 mph - N/A   Clear
11:53 AM 59.0 °F - 46.0 °F 62% 29.91 in 10.0 mi South 12.7 mph - N/A   Clear
12:53 PM 60.1 °F - 45.0 °F 57% 29.89 in 10.0 mi South 9.2 mph - N/A   Clear
1:53 PM 60.1 °F - 46.0 °F 60% 29.86 in 10.0 mi SE 5.8 mph - N/A   Clear
2:53 PM 62.1 °F - 45.0 °F 53% 29.83 in 10.0 mi SSE 5.8 mph - N/A   Clear
3:53 PM 62.1 °F - 45.0 °F 53% 29.83 in 10.0 mi ESE 8.1 mph - N/A   Clear
4:53 PM 57.0 °F - 44.1 °F 62% 29.83 in 10.0 mi ESE 5.8 mph - N/A   Clear
5:53 PM 54.0 °F - 44.1 °F 69% 29.85 in 10.0 mi Calm Calm - N/A   Clear
6:53 PM 51.1 °F - 44.1 °F 77% 29.87 in 10.0 mi Calm Calm - N/A   Clear
7:53 PM 52.0 °F - 44.1 °F 74% 29.88 in 10.0 mi SW 6.9 mph - N/A   Clear
8:53 PM 51.1 °F - 45.0 °F 80% 29.88 in 10.0 mi NW 6.9 mph - N/A   Overcast
9:53 PM 53.1 °F - 45.0 °F 74% 29.88 in 10.0 mi North 3.5 mph - N/A   Overcast
10:53 PM 52.0 °F - 46.0 °F 80% 29.88 in 10.0 mi SW 3.5 mph - N/A   Overcast
11:53 PM 52.0 °F - 45.0 °F 77% 29.88 in 10.0 mi SW 3.5 mph - N/A   Overcast